Temp
-10 -9 -9 -9 -9 -9 -9 -9 -9 -9 -9 -9 -10 -10 -10 -10 -10 -10 -10 -11 -12 -11 -12 -13 -14 -14 -14 -14 -14 -14 -14 -14 -15 -15 -15 -15 -16 -16 -16 -15 -15 -16 -17
-10 -10 -9 -9 -9 -9 -9 -9 -9 -9 -9 -10 -10 -10 -10 -10 -10 -10 -11 -12 -12 -12 -13 -14 -14 -14 -14 -14 -14 -14 -15 -15 -15 -15 -16 -16 -16 -16 -15 -15 -16 -17 -18
-10 -9 -10 -10 -9 -9 -9 -9 -9 -9 -10 -10 -10 -11 -11 -10 -11 -11 -12 -12 -12 -12 -13 -14 -14 -14 -14 -14 -14 -14 -14 -15 -15 -15 -16 -16 -15 -15 -15 -16 -16 -17 -18
-10 -10 -10 -10 -10 -9 -9 -9 -9 -10 -10 -10 -11 -11 -11 -11 -11 -11 -12 -12 -12 -12 -13 -14 -14 -14 -15 -14 -14 -14 -14 -15 -15 -15 -16 -16 -15 -15 -15 -16 -16 -17 -18
-10 -10 -10 -10 -9 -9 -9 -10 -9 -10 -10 -10 -11 -11 -11 -11 -11 -11 -12 -12 -12 -12 -13 -13 -14 -14 -13 -13 -14 -14 -14 -14 -15 -15 -16 -16 -15 -15 -15 -15 -17 -17 -18
-10 -10 -10 -10 -9 -9 -9 -10 -10 -10 -11 -11 -11 -11 -11 -11 -11 -12 -12 -12 -12 -12 -12 -13 -13 -13 -13 -13 -13 -13 -13 -14 -15 -15 -15 -16 -15 -16 -16 -16 -16 -17 -17
-11 -10 -10 -10 -10 -10 -10 -10 -10 -11 -11 -11 -11 -11 -11 -11 -11 -12 -12 -12 -12 -12 -12 -13 -13 -13 -13 -13 -13 -13 -13 -14 -15 -15 -15 -15 -15 -15 -16 -16 -17 -16 -17
-11 -10 -10 -10 -10 -10 -10 -10 -11 -11 -12 -12 -12 -12 -12 -12 -12 -12 -12 -12 -12 -12 -12 -13 -13 -13 -14 -14 -14 -14 -14 -14 -15 -15 -15 -15 -15 -16 -16 -16 -16 -17 -17
-10 -10 -10 -10 -10 -10 -10 -11 -11 -12 -12 -12 -12 -12 -12 -12 -12 -12 -13 -13 -13 -13 -13 -13 -13 -13 -14 -14 -14 -14 -14 -14 -14 -15 -15 -15 -15 -16 -16 -16 -16 -17 -17
-11 -11 -11 -11 -11 -11 -11 -12 -12 -12 -12 -12 -12 -12 -12 -12 -12 -12 -13 -13 -13 -13 -13 -13 -13 -14 -14 -14 -14 -15 -14 -14 -14 -15 -15 -15 -15 -16 -16 -16 -16 -16 -17
-11 -11 -11 -11 -11 -11 -12 -12 -12 -12 -13 -12 -12 -12 -12 -12 -12 -12 -13 -13 -13 -13 -13 -13 -14 -14 -14 -14 -15 -15 -14 -14 -14 -14 -14 -15 -15 -16 -16 -16 -16 -17 -17
-12 -12 -11 -12 -12 -12 -12 -12 -12 -12 -13 -12 -13 -12 -12 -12 -12 -12 -13 -13 -13 -13 -13 -14 -14 -14 -14 -15 -15 -14 -14 -14 -13 -14 -14 -15 -15 -15 -15 -16 -16 -16 -16
-12 -12 -12 -12 -12 -12 -12 -12 -12 -13 -13 -13 -13 -12 -12 -12 -12 -12 -13 -13 -13 -13 -13 -14 -14 -14 -14 -15 -15 -15 -14 -14 -14 -14 -14 -14 -14 -15 -15 -16 -16 -16 -16
-12 -12 -12 -13 -13 -12 -13 -13 -13 -13 -13 -13 -13 -13 -12 -13 -12 -12 -13 -13 -13 -13 -13 -13 -14 -14 -14 -15 -15 -15 -15 -15 -15 -15 -14 -14 -14 -15 -15 -16 -16 -16 -16
-12 -13 -13 -13 -13 -13 -13 -13 -13 -13 -13 -13 -13 -13 -13 -13 -13 -13 -13 -13 -13 -13 -13 -13 -13 -14 -14 -14 -15 -15 -15 -15 -15 -15 -15 -15 -15 -15 -15 -15 -16 -16 -16
-13 -13 -13 -13 -13 -13 -13 -13 -13 -13 -13 -13 -13 -13 -13 -13 -13 -13 -13 -13 -13 -13 -13 -13 -13 -14 -14 -14 -15 -15 -15 -15 -15 -15 -15 -15 -15 -15 -15 -15 -15 -16 -16
-13 -13 -13 -14 -14 -14 -14 -14 -14 -14 -14 -13 -13 -13 -13 -13 -13 -13 -14 -14 -14 -14 -14 -14 -14 -14 -14 -14 -14 -15 -15 -15 -15 -15 -15 -15 -15 -15 -15 -15 -16 -16 -16
-14 -14 -14 -14 -14 -14 -14 -14 -14 -14 -14 -14 -14 -14 -13 -13 -13 -14 -14 -14 -14 -14 -14 -14 -14 -14 -14 -14 -15 -15 -15 -15 -15 -15 -16 -16 -16 -15 -15 -15 -15 -16 -16
-14 -14 -14 -14 -14 -14 -15 -14 -15 -15 -15 -15 -14 -14 -14 -14 -14 -14 -14 -14 -14 -14 -14 -14 -14 -14 -15 -15 -15 -15 -15 -15 -15 -15 -15 -15 -15 -15 -16 -15 -15 -16 -16
-14 -14 -14 -14 -14 -15 -15 -15 -15 -15 -15 -15 -15 -15 -15 -14 -14 -14 -14 -14 -14 -14 -15 -15 -15 -15 -15 -15 -15 -15 -15 -15 -15 -15 -15 -15 -15 -15 -16 -16 -16 -16 -16
-14 -14 -14 -15 -15 -15 -16 -16 -16 -16 -16 -15 -15 -15 -15 -15 -15 -15 -15 -15 -15 -15 -15 -15 -15 -15 -15 -15 -15 -15 -15 -16 -16 -16 -16 -16 -16 -16 -16 -16 -16 -16 -16
-14 -15 -15 -15 -15 -16 -16 -16 -16 -16 -16 -15 -15 -15 -15 -15 -15 -15 -15 -15 -15 -15 -15 -15 -15 -15 -15 -15 -15 -15 -15 -16 -16 -16 -16 -17 -17 -17 -17 -17 -17 -17 -16
-15 -15 -15 -16 -16 -16 -16 -16 -16 -15 -15 -16 -16 -16 -15 -15 -15 -15 -15 -16 -15 -15 -15 -15 -16 -16 -15 -16 -16 -16 -16 -16 -17 -17 -18 -18 -18 -19 -18 -18 -18 -18 -18
-16 -16 -16 -16 -16 -16 -16 -16 -15 -16 -16 -16 -16 -16 -16 -16 -16 -16 -16 -16 -16 -16 -15 -16 -16 -16 -16 -16 -16 -16 -17 -17 -18 -19 -19 -20 -20 -20 -20 -20 -20 -19 -19
-16 -16 -16 -16 -16 -16 -16 -16 -16 -16 -16 -16 -16 -16 -16 -16 -16 -16 -16 -16 -16 -16 -16 -16 -16 -16 -16 -17 -17 -17 -18 -19 -20 -20 -21 -21 -21 -21 -21 -21 -21 -21 -20
-17 -17 -17 -16 -16 -16 -16 -16 -15 -16 -16 -16 -17 -17 -16 -16 -16 -16 -16 -16 -17 -16 -16 -16 -16 -17 -17 -17 -18 -19 -20 -20 -21 -21 -21 -21 -21 -21 -21 -21 -21 -21 -21
Height
5827 5829 5830 5830 5829 5829 5828 5828 5828 5828 5827 5824 5821 5821 5818 5816 5811 5805 5799 5793 5787 5783 5777 5770 5764 5758 5751 5744 5737 5728 5719 5709 5700 5688 5678 5667 5656 5645 5632 5618 5603 5587 5571
5824 5825 5826 5826 5827 5827 5827 5827 5827 5826 5824 5822 5820 5816 5813 5808 5803 5800 5795 5789 5784 5778 5770 5765 5759 5753 5747 5740 5732 5723 5714 5704 5695 5684 5674 5662 5650 5636 5622 5608 5591 5573 5558
5819 5820 5821 5822 5823 5823 5823 5823 5822 5821 5818 5816 5814 5811 5808 5804 5800 5795 5789 5785 5779 5772 5766 5760 5755 5750 5744 5736 5728 5719 5710 5701 5690 5680 5669 5657 5645 5631 5618 5601 5586 5569 5554
5815 5817 5817 5818 5819 5819 5819 5818 5817 5816 5814 5812 5810 5807 5804 5800 5795 5790 5786 5780 5774 5769 5763 5759 5754 5748 5741 5733 5725 5717 5707 5698 5687 5677 5666 5654 5641 5628 5614 5601 5586 5571 5558
5811 5813 5814 5815 5816 5816 5816 5815 5814 5813 5811 5809 5807 5804 5801 5797 5791 5787 5782 5777 5773 5768 5762 5756 5751 5745 5738 5730 5723 5715 5706 5696 5686 5675 5664 5651 5638 5625 5614 5601 5587 5573 5561
5807 5808 5809 5811 5812 5812 5812 5812 5811 5809 5807 5805 5803 5800 5797 5793 5788 5784 5779 5775 5771 5766 5760 5755 5749 5742 5734 5727 5719 5711 5702 5694 5684 5672 5662 5650 5637 5625 5613 5602 5591 5579 5568
5802 5804 5806 5807 5808 5808 5807 5807 5806 5805 5803 5801 5799 5796 5793 5789 5785 5781 5777 5772 5768 5763 5758 5752 5746 5739 5732 5724 5718 5709 5700 5691 5682 5672 5662 5651 5638 5626 5616 5604 5593 5582 5571
5798 5800 5801 5802 5803 5803 5803 5802 5801 5800 5799 5797 5795 5792 5790 5786 5782 5778 5774 5769 5765 5760 5755 5749 5743 5737 5730 5724 5716 5707 5699 5690 5682 5673 5663 5652 5639 5629 5618 5606 5596 5586 5576
5793 5794 5796 5797 5798 5798 5798 5797 5796 5796 5794 5793 5791 5789 5787 5783 5779 5774 5770 5765 5762 5758 5752 5746 5741 5735 5729 5722 5715 5708 5699 5691 5682 5673 5663 5652 5641 5632 5621 5611 5601 5592 5583
5786 5789 5791 5792 5792 5792 5793 5792 5792 5791 5790 5789 5787 5785 5782 5779 5775 5771 5766 5763 5760 5755 5751 5745 5739 5732 5726 5719 5714 5708 5699 5692 5684 5674 5663 5654 5645 5636 5625 5615 5606 5597 5589
5781 5784 5785 5787 5787 5787 5787 5787 5786 5785 5785 5784 5782 5781 5778 5775 5771 5767 5763 5759 5755 5751 5747 5742 5736 5729 5723 5718 5714 5707 5700 5692 5684 5675 5665 5656 5647 5639 5630 5620 5610 5601 5593
5776 5778 5780 5781 5782 5782 5782 5781 5780 5779 5779 5779 5777 5775 5773 5771 5767 5763 5758 5755 5751 5747 5743 5738 5733 5727 5722 5717 5712 5706 5698 5691 5684 5676 5667 5659 5651 5642 5634 5624 5615 5605 5597
5771 5773 5775 5776 5776 5776 5775 5774 5774 5773 5773 5773 5771 5770 5768 5766 5762 5759 5755 5750 5747 5744 5740 5735 5730 5727 5721 5715 5710 5703 5696 5690 5683 5676 5669 5662 5654 5645 5636 5626 5618 5610 5601
5766 5767 5768 5769 5770 5770 5769 5769 5768 5768 5768 5767 5765 5764 5763 5760 5757 5754 5751 5748 5743 5740 5737 5732 5728 5724 5720 5714 5708 5702 5696 5689 5683 5676 5669 5662 5654 5647 5640 5631 5624 5615 5607
5759 5761 5762 5763 5764 5764 5764 5764 5763 5763 5762 5761 5760 5758 5756 5754 5752 5749 5748 5744 5740 5736 5732 5729 5725 5720 5715 5710 5705 5700 5694 5688 5682 5676 5669 5663 5655 5648 5642 5635 5626 5619 5611
5753 5754 5755 5756 5757 5758 5758 5758 5758 5757 5756 5755 5754 5753 5750 5748 5747 5745 5743 5740 5736 5732 5728 5725 5720 5717 5712 5707 5702 5697 5693 5687 5680 5675 5669 5663 5657 5650 5643 5636 5629 5623 5616
5746 5747 5748 5750 5751 5751 5751 5751 5751 5750 5749 5748 5748 5747 5745 5743 5741 5740 5738 5734 5731 5727 5724 5720 5716 5711 5708 5704 5699 5695 5691 5686 5680 5674 5668 5662 5655 5650 5644 5637 5631 5625 5619
5739 5741 5742 5743 5743 5743 5743 5743 5744 5743 5743 5742 5742 5741 5739 5736 5735 5733 5731 5728 5725 5721 5718 5716 5712 5708 5703 5699 5695 5691 5687 5682 5677 5671 5666 5660 5655 5648 5642 5637 5631 5626 5621
5732 5734 5735 5735 5736 5736 5736 5737 5737 5737 5736 5736 5735 5734 5732 5730 5728 5725 5723 5720 5718 5715 5712 5709 5705 5701 5697 5694 5689 5685 5681 5677 5673 5669 5664 5658 5652 5647 5641 5635 5630 5625 5620
5726 5728 5728 5729 5729 5729 5729 5729 5730 5730 5730 5729 5728 5727 5725 5723 5721 5718 5716 5713 5711 5708 5705 5702 5698 5695 5691 5688 5683 5679 5675 5671 5667 5662 5658 5653 5649 5644 5638 5632 5627 5622 5618
5719 5720 5721 5721 5721 5721 5722 5722 5722 5723 5723 5722 5720 5719 5718 5716 5714 5711 5708 5706 5704 5701 5698 5695 5692 5689 5684 5680 5676 5672 5667 5663 5659 5655 5650 5646 5641 5637 5633 5628 5624 5619 5615
5711 5712 5713 5714 5714 5715 5715 5715 5716 5716 5715 5715 5714 5712 5711 5709 5707 5704 5702 5699 5696 5693 5690 5687 5684 5680 5676 5672 5668 5663 5658 5654 5649 5645 5640 5636 5632 5628 5624 5620 5617 5613 5609
5706 5707 5709 5710 5710 5710 5710 5710 5710 5709 5709 5707 5707 5705 5703 5701 5699 5697 5695 5692 5688 5685 5681 5678 5675 5671 5666 5662 5657 5653 5648 5643 5639 5634 5629 5625 5621 5618 5615 5612 5608 5604 5601
5699 5701 5702 5703 5703 5703 5703 5703 5702 5702 5701 5700 5698 5697 5695 5693 5691 5689 5686 5682 5679 5676 5672 5669 5665 5660 5656 5652 5647 5642 5637 5632 5627 5623 5618 5614 5611 5607 5604 5601 5598 5594 5591
5693 5695 5696 5696 5696 5696 5696 5696 5695 5694 5693 5691 5689 5688 5686 5683 5682 5679 5676 5673 5669 5666 5662 5658 5653 5649 5645 5640 5635 5630 5625 5620 5616 5612 5608 5605 5601 5598 5594 5591 5588 5584 5581
5686 5687 5687 5688 5688 5687 5687 5687 5686 5685 5683 5681 5680 5678 5676 5674 5671 5669 5666 5663 5659 5655 5650 5646 5641 5637 5632 5627 5622 5617 5613 5609 5605 5602 5599 5595 5592 5588 5583 5580 5576 5573 5570
Wind_Speed
17 16 17 18 16 13 12 14 16 18 22 20 18 17 22 24 27 33 37 31 31 34 35 36 37 35 37 42 45 50 51 46 44 46 46 49 49 48 50 55 62 60 55
17 20 19 18 15 13 12 14 16 18 19 17 17 20 22 25 31 35 31 29 32 35 37 38 37 36 40 43 48 48 43 45 45 43 46 49 46 50 52 59 61 58 48
24 21 18 18 16 13 13 15 16 17 16 18 19 22 24 28 32 33 29 31 35 36 36 35 32 38 42 45 41 38 42 42 44 42 48 48 48 49 51 57 56 54 41
23 22 21 18 16 14 14 15 16 16 18 18 20 22 25 30 33 32 29 32 37 34 32 32 34 37 35 34 34 38 40 43 45 43 49 48 47 48 49 51 52 46 38
26 24 20 19 16 15 15 16 15 16 16 17 20 22 26 31 32 28 28 32 35 31 31 30 30 30 29 33 37 38 40 43 45 43 48 50 45 49 45 48 47 45 41
25 23 20 18 17 15 15 16 16 15 15 17 19 22 25 28 29 26 26 30 32 30 29 27 29 30 33 36 38 40 43 44 45 44 47 52 48 47 46 46 48 40 36
24 23 20 18 16 15 15 16 16 15 14 16 18 21 24 26 27 24 24 28 29 29 28 27 27 29 32 36 37 39 42 45 45 45 44 50 48 47 47 45 46 44 38
24 21 20 15 15 16 17 16 16 15 15 17 19 21 23 25 26 24 23 27 28 29 26 24 25 27 29 33 34 37 41 44 43 44 44 48 49 44 45 47 45 42 41
23 21 16 15 14 16 17 17 16 18 18 19 21 21 24 24 25 24 23 27 28 27 25 25 26 26 25 30 32 34 37 40 43 44 46 45 49 46 41 42 42 41 37
20 18 16 14 14 15 17 18 18 18 19 19 21 21 23 22 24 23 22 24 25 27 28 25 25 27 28 29 30 29 33 36 38 41 43 45 44 46 44 40 39 38 35
18 17 15 14 15 16 18 18 19 19 17 19 21 21 23 20 22 23 21 22 25 28 28 29 27 28 29 29 29 28 29 34 36 37 41 42 43 42 44 43 40 37 36
18 16 16 16 17 15 16 18 18 17 17 20 20 21 22 21 23 23 20 21 24 27 29 29 29 29 31 29 29 28 29 32 36 37 37 38 39 40 41 43 42 40 39
18 18 18 18 15 13 16 17 15 13 16 18 20 21 22 21 23 22 20 20 22 26 29 29 29 29 31 31 30 30 29 30 32 35 37 36 36 38 39 41 43 42 41
20 19 21 17 15 15 15 16 16 15 17 19 21 20 22 21 22 22 22 20 21 24 28 28 28 29 30 31 31 31 31 32 31 33 35 36 36 35 36 36 37 39 40
22 23 19 17 17 16 17 16 15 17 19 20 21 21 22 21 21 20 23 23 22 22 24 27 28 29 30 32 33 33 33 34 35 35 35 36 36 35 33 33 35 35 36
25 22 18 17 18 20 19 20 21 22 23 24 24 23 23 22 22 22 22 22 22 21 21 24 27 29 30 30 30 32 33 33 33 34 35 35 35 35 35 34 32 32 32
23 21 20 21 23 25 23 23 25 26 26 26 25 25 26 25 25 25 25 23 25 24 25 26 27 27 28 29 29 31 32 32 32 32 33 33 34 34 33 34 34 31 29
25 24 24 27 28 30 28 26 26 26 29 29 29 27 28 26 27 27 26 26 28 27 28 28 28 27 29 29 29 31 33 34 33 31 31 32 32 32 32 31 32 32 31
29 26 28 28 28 26 26 28 26 27 28 27 25 24 24 24 27 28 27 27 28 29 30 30 30 30 30 30 31 32 32 34 34 33 32 33 33 33 32 31 29 30 30
30 28 30 31 32 31 28 27 28 27 27 27 27 27 27 26 27 27 26 27 30 31 31 31 31 32 32 33 34 34 33 34 35 36 36 36 36 35 34 32 31 29 29
30 31 29 30 31 31 28 30 30 29 28 27 27 28 29 30 30 29 29 29 28 29 30 32 32 34 34 35 35 36 37 38 38 38 38 37 36 35 34 34 32 31 30
22 22 23 24 23 22 22 23 24 25 25 27 28 29 30 31 31 29 28 27 28 30 33 35 35 35 35 38 40 41 42 42 42 42 41 40 39 37 34 32 31 31 30
20 19 19 19 20 21 23 26 27 29 29 30 31 31 32 32 32 31 31 31 33 34 34 35 36 39 42 45 46 47 48 48 47 45 43 42 40 38 36 34 33 31 29
21 21 21 23 23 24 25 26 26 27 28 31 33 34 33 34 34 32 33 34 36 37 38 39 42 44 46 48 49 51 50 49 47 44 42 40 39 39 38 36 36 35 33
26 26 27 28 28 27 28 30 31 31 33 38 37 35 35 35 35 36 38 40 41 42 43 44 46 48 49 52 52 50 47 45 43 41 39 38 37 37 37 38 38 37 38
30 30 29 30 30 32 31 30 32 33 37 36 36 38 39 39 39 40 41 43 45 45 46 48 51 52 53 53 48 45 43 41 39 38 37 37 36 36 37 37 36 34 35
Wind_Direction
262 266 266 262 273 293 313 317 320 326 326 323 331 333 337 335 332 335 337 342 340 336 332 334 333 330 336 338 338 338 337 337 340 339 339 337 336 340 340 340 334 328 322
258 259 258 267 279 287 296 305 317 324 323 321 332 340 337 338 340 338 340 344 340 339 337 334 333 335 337 338 337 337 341 342 342 343 342 342 342 345 346 344 346 342 336
258 258 266 274 282 286 295 311 319 325 320 322 338 337 341 340 343 345 345 346 343 343 341 342 336 336 335 335 338 344 345 345 348 348 348 348 348 352 349 351 352 353 352
254 257 260 272 277 286 303 312 320 319 311 323 334 338 339 342 342 344 345 346 346 346 348 344 338 337 338 343 350 348 349 351 352 351 352 351 354 355 355 359 358 1 3
250 253 263 268 272 282 297 309 310 305 310 321 335 336 337 341 344 345 346 348 346 351 351 352 351 347 352 353 354 353 354 356 355 354 356 356 358 357 359 5 3 6 7
250 257 263 263 267 281 295 298 297 297 305 324 334 332 339 344 347 347 345 347 346 349 351 353 354 353 355 357 358 357 357 359 358 358 360 0 4 3 3 7 10 10 15
251 255 257 257 270 282 287 286 284 289 306 332 329 327 336 342 343 345 344 345 344 345 347 350 353 354 354 357 358 359 359 1 2 2 0 3 8 10 11 10 9 14 14
249 252 252 261 272 279 276 275 276 280 309 331 322 323 329 335 339 343 343 344 343 342 345 349 353 353 353 354 359 2 2 2 3 5 4 7 10 12 14 17 17 16 22
244 246 253 262 268 268 269 275 278 282 295 313 313 319 322 332 336 343 343 345 342 342 345 351 351 348 348 356 359 2 5 4 3 6 8 10 11 11 11 17 18 16 15
237 246 255 262 264 270 275 279 281 286 293 304 303 315 316 329 335 342 342 340 339 339 342 341 347 351 351 355 355 359 6 7 6 7 9 12 11 11 11 12 15 17 17
235 244 250 255 262 274 280 284 285 284 300 297 304 309 311 320 331 337 338 337 341 340 338 342 344 349 350 348 347 352 3 7 9 11 11 11 11 11 12 12 14 16 15
235 238 245 255 271 283 288 293 287 286 288 293 301 303 308 315 324 328 334 333 339 339 342 342 345 347 346 343 342 348 357 3 7 10 14 11 11 12 12 15 17 18 19
231 238 251 261 268 288 294 288 289 296 289 294 304 299 303 305 319 324 331 335 338 334 336 344 345 343 345 346 342 344 352 357 1 6 10 11 12 11 14 14 16 19 21
232 248 256 259 265 281 302 291 284 290 300 302 301 294 298 303 312 322 328 331 338 335 334 336 340 342 343 345 346 344 347 351 353 356 2 6 9 13 10 14 17 18 21
242 249 257 262 266 281 287 284 282 292 300 299 298 289 291 298 303 313 317 323 329 335 337 337 337 337 340 343 345 347 348 347 348 350 353 357 1 6 11 12 13 17 19
247 253 261 263 268 276 283 276 281 287 293 294 295 287 285 290 294 298 309 318 322 329 331 330 332 335 338 337 339 340 342 346 349 349 349 350 353 357 1 7 13 12 16
254 259 261 270 273 278 285 283 279 284 290 294 295 290 280 284 290 293 299 306 308 315 318 322 326 330 334 337 336 339 339 338 339 343 346 347 347 349 354 359 2 6 10
261 266 271 275 276 279 280 277 274 281 286 286 289 285 279 279 283 290 295 299 298 303 307 310 315 321 325 328 331 332 335 338 338 338 339 339 342 344 345 349 354 358 359
264 269 276 275 273 277 275 273 272 279 280 282 281 283 285 287 289 292 298 299 298 301 303 305 308 310 313 317 321 325 327 329 329 331 333 336 337 336 338 341 344 347 352
263 267 270 271 264 275 271 268 271 273 270 273 278 283 286 289 291 293 297 300 301 302 303 304 307 309 312 314 316 319 321 321 322 323 324 325 327 331 333 333 335 337 339
255 260 265 265 265 265 266 266 261 266 274 281 286 287 290 292 293 293 293 294 297 300 302 304 307 307 311 312 314 317 319 319 317 316 316 315 315 316 319 323 324 326 329
253 255 258 259 259 259 263 263 267 271 278 284 287 289 293 294 295 294 291 293 297 301 304 306 306 307 309 311 312 313 315 315 314 312 311 310 309 307 306 307 310 312 315
248 252 255 258 260 261 266 271 276 279 283 285 287 289 291 290 290 289 289 294 300 303 307 307 307 309 310 311 314 315 314 313 310 308 307 305 303 301 299 298 298 299 300
246 254 259 263 265 268 272 274 278 282 288 289 288 286 289 288 286 287 291 296 301 302 302 301 305 308 312 314 314 312 310 307 306 304 303 302 300 299 299 297 295 295 295
254 257 260 263 267 271 274 277 278 274 284 291 282 282 283 285 287 288 292 297 300 300 300 302 305 310 312 312 310 307 306 303 302 302 303 302 303 303 304 303 301 301 301
256 258 260 265 269 270 271 276 280 282 285 289 285 284 285 288 289 290 293 297 299 301 303 305 309 310 310 307 305 301 300 300 303 304 306 307 307 307 307 306 305 303 301